Find Starlink 38028

NORAD ID: 100485 Int'l Des: 2026-196 Owner: SPXS Country: US Constellation: starlink operational

Current View

Loading 3D Globe...

About Starlink 38028

Starlink 38028 (NORAD 100485) is a starlink constellation satellite launched Aug 25, 2026 by SPXS of US. with a mass of 575.00 kg.

Upcoming Passes

Passes for default location (London). Set your location on the main map for personalized predictions.

Altitude History

Loading altitude history...

Two-Line Element Set

1 A0485U 26196N 26256.51879004 -.00367891 00000-0 -21938-2 0 9997
2 A0485 53.1569 276.5508 0002347 77.6176 282.5108 15.78183714 4253
Epoch: Sep 13, 2026 • Age: 170 hours

Current Status

Altitude 369.3 km
Apogee / Perigee N/A
Velocity 7.69 km/s
Sub-Earth Point -52.49°S, 80.04°W
Launch Date Aug 25, 2026
Age 26 days
Type internet

Technical Details

Classification Payload
Mass 575.00 kg
Dry Mass 530.00 kg
Length 0.30 m
Span 29.00 m
Shape ? Box + pan
Manufacturer SPXS
Bus Type Starlink V2MO
Phase Status In Orbit
Owner/State SPXS/US

Most Searched